Date_and_time,latitude,longitude,wind_speed,RelWindDirFrom,WindDirFrom,air_pressure,air_temperature,relative_humidity,Temp,platform_speed_wrt_ground,air_pressure_at_mean_sea_level,platform_orientation
2019-11-25 23:40,50.6304416666667,-96.9807716666667,5.7,7.8,354,977.20,-0.9,85,1.06,0.0,1004.83,360.0
2019-11-25 23:50,50.6304416666667,-96.9807716666667,6.5,8.6,356,977.29,-0.9,85,1.07,0.0,1004.93,360.0
2019-11-26 00:00,50.6304416666667,-96.9807716666667,7.7,10.2,359,977.40,-0.9,85,1.06,0.0,1005.04,311.7
2019-11-26 00:10,50.6304416666667,-96.9807716666667,8.2,10.3,2,977.57,-0.9,85,1.06,0.0,1005.22,311.7
2019-11-26 00:20,50.6304416666667,-96.9807716666667,7.6,9.9,354,977.77,-1.0,83,1.06,0.0,1005.43,311.7
2019-11-26 00:30,50.63044,-96.9807716666667,6.2,8.5,359,977.92,-1.0,84,1.06,0.0,1005.59,311.7
2019-11-26 00:40,50.6304366666667,-96.980785,6.6,7.8,8,977.99,-1.0,85,1.06,0.0,1005.67,311.7
2019-11-26 00:50,50.6304366666667,-96.9807733333333,6.8,8.1,4,978.12,-1.0,83,1.07,0.0,1005.81,311.7
2019-11-26 01:00,50.6304416666667,-96.9807716666667,7.4,8.6,12,978.24,-1.1,85,1.07,0.0,1005.93,311.7
2019-11-26 01:10,50.6304416666667,-96.9807733333333,6.9,8.1,14,978.28,-1.1,85,1.06,0.0,1005.97,311.7
2019-11-26 01:20,50.63044,-96.980775,8.9,9.9,26,978.31,-1.1,86,1.07,0.0,1006.01,311.7
2019-11-26 01:30,50.6304383333333,-96.9807716666667,8.4,9.7,32,978.42,-1.2,88,1.06,0.0,1006.13,311.7
2019-11-26 01:40,50.6304383333333,-96.9807716666667,7.9,9.3,24,978.59,-1.3,87,1.07,0.0,1006.30,311.7
2019-11-26 01:50,50.6304383333333,-96.9807716666667,8.1,9.5,19,978.72,-1.3,86,1.07,0.0,1006.44,311.7
2019-11-26 02:00,50.6304483333333,-96.9808033333333,8.2,9.7,19,978.84,-1.4,87,1.07,0.0,1006.56,283.7
2019-11-26 02:10,50.630445,-96.98079,8.3,10.0,13,979.00,-1.4,86,1.07,0.0,1006.74,283.7
2019-11-26 02:20,50.6304433333333,-96.9807866666667,8.2,9.6,22,979.07,-1.4,87,1.07,0.0,1006.81,283.7
2019-11-26 02:30,50.6304333333333,-96.9807716666667,7.7,9.1,19,979.19,-1.5,87,1.07,0.0,1006.94,283.7
2019-11-26 02:40,50.63044,-96.9807733333333,8.0,8.9,17,979.29,-1.5,85,1.07,0.0,1007.04,283.7
2019-11-26 02:50,50.6304383333333,-96.9807716666667,7.3,8.5,24,979.43,-1.5,87,1.07,0.0,1007.18,283.7
2019-11-26 03:00,50.63044,-96.9807716666667,7.2,8.6,20,979.58,-1.5,87,1.07,0.0,1007.34,90.0
2019-11-26 03:10,50.6304416666667,-96.9807733333333,8.1,10.0,22,979.64,-1.5,87,1.08,0.0,1007.41,90.0
2019-11-26 03:20,50.6304433333333,-96.980775,8.3,9.9,24,979.75,-1.5,87,1.08,0.0,1007.52,90.0
2019-11-26 03:30,50.6304433333333,-96.980775,6.9,8.2,26,979.90,-1.5,87,1.08,0.0,1007.68,90.0
2019-11-26 03:40,50.6304433333333,-96.9807733333333,6.5,7.8,26,980.03,-1.5,85,1.08,0.0,1007.82,90.0
2019-11-26 03:50,50.6304433333333,-96.980775,6.5,8.0,18,980.13,-1.5,84,1.08,0.0,1007.92,90.0
2019-11-26 04:00,50.6304433333333,-96.9807733333333,5.6,6.7,6,980.24,-1.5,84,1.09,0.0,1008.04,0.0
2019-11-26 04:10,50.6304433333333,-96.9807733333333,5.0,6.1,11,980.33,-1.5,84,1.09,0.0,1008.13,0.0
2019-11-26 04:20,50.6304433333333,-96.980775,4.8,6.0,1,980.40,-1.5,84,1.09,0.0,1008.21,0.0
2019-11-26 04:30,50.6304416666667,-96.980775,4.8,5.6,358,980.52,-1.5,85,1.10,0.0,1008.33,0.0
2019-11-26 04:40,50.6304433333333,-96.980775,5.5,6.4,4,980.60,-1.5,84,1.10,0.0,1008.41,0.0
2019-11-26 04:50,50.6304433333333,-96.9807766666667,5.0,6.5,7,980.71,-1.5,85,1.09,0.0,1008.53,0.0
2019-11-26 05:00,50.6304416666667,-96.980775,5.1,6.4,11,980.83,-1.5,86,1.09,0.0,1008.65,104.2
2019-11-26 05:10,50.6304483333333,-96.9807633333333,6.3,7.2,19,980.87,-1.5,85,1.08,0.0,1008.69,104.2
2019-11-26 05:20,50.6304183333333,-96.980745,6.3,7.2,21,980.94,-1.5,86,1.09,0.0,1008.76,104.2
2019-11-26 05:30,50.6304383333333,-96.9807683333333,5.8,6.7,21,981.09,-1.5,86,1.09,0.0,1008.92,104.2
2019-11-26 05:40,50.630425,-96.9807716666667,5.6,6.5,24,981.26,-1.5,85,1.09,0.0,1009.09,104.2
2019-11-26 05:50,50.6304266666667,-96.980765,5.3,6.1,27,981.39,-1.5,85,1.08,0.0,1009.22,104.2
2019-11-26 06:00,50.63043,-96.9807666666667,5.4,6.1,26,981.47,-1.5,83,1.08,0.0,1009.30,360.0
2019-11-26 06:10,50.6304333333333,-96.9807666666667,4.3,5.9,12,981.64,-1.5,85,1.08,0.0,1009.48,360.0
2019-11-26 06:20,50.630435,-96.980765,4.3,5.7,3,981.76,-1.6,85,1.07,0.0,1009.61,360.0
2019-11-26 06:30,50.6304366666667,-96.980765,5.1,6.5,18,981.69,-1.6,84,1.08,0.0,1009.54,360.0
2019-11-26 06:40,50.6304383333333,-96.980765,6.3,7.9,25,981.66,-1.6,84,1.08,0.0,1009.51,360.0
2019-11-26 06:50,50.63044,-96.9807666666667,5.3,6.6,32,981.73,-1.6,84,1.08,0.0,1009.58,360.0
2019-11-26 07:00,50.63044,-96.9807666666667,5.1,6.5,33,981.82,-1.6,85,1.07,0.0,1009.68,90.0
2019-11-26 07:10,50.6304416666667,-96.9807666666667,5.9,7.0,25,981.87,-1.6,85,1.07,0.0,1009.72,90.0
2019-11-26 07:20,50.6304416666667,-96.9807666666667,5.3,6.4,23,982.03,-1.6,84,1.07,0.0,1009.89,90.0
2019-11-26 07:30,50.6304416666667,-96.9807666666667,3.5,5.0,3,982.22,-1.7,84,1.07,0.0,1010.09,90.0
2019-11-26 07:40,50.6304433333333,-96.9807666666667,3.1,3.8,347,982.40,-1.7,83,1.07,0.0,1010.27,90.0
2019-11-26 07:50,50.6304433333333,-96.9807683333333,1.9,3.1,310,982.55,-1.8,84,1.08,0.0,1010.43,90.0
2019-11-26 08:00,50.6304433333333,-96.9807683333333,2.0,2.6,315,982.65,-1.8,85,1.07,0.0,1010.54,90.0
2019-11-26 08:10,50.630445,-96.9807683333333,2.1,3.0,299,982.84,-1.9,86,1.07,0.0,1010.74,90.0
2019-11-26 08:20,50.630445,-96.9807683333333,2.2,2.9,268,983.00,-2.0,88,1.07,0.0,1010.91,90.0
2019-11-26 08:30,50.630445,-96.9807683333333,2.8,3.5,286,983.11,-2.1,90,1.07,0.0,1011.03,90.0
2019-11-26 08:40,50.630445,-96.9807683333333,2.5,3.4,290,983.27,-2.2,92,1.07,0.0,1011.20,90.0
2019-11-26 08:50,50.6304566666667,-96.9807616666667,2.9,4.0,306,983.38,-2.1,93,1.08,0.0,1011.31,90.0
2019-11-26 09:00,50.63045,-96.9807616666667,2.8,3.8,305,983.48,-2.2,93,1.08,0.0,1011.42,360.0
2019-11-26 09:10,50.6304483333333,-96.980765,2.9,4.1,289,983.52,-2.3,96,1.07,0.0,1011.46,360.0
2019-11-26 09:20,50.6304383333333,-96.9807516666667,3.1,4.0,289,983.57,-2.3,97,1.08,0.0,1011.52,360.0
2019-11-26 09:30,50.630445,-96.9807583333333,3.2,4.5,306,983.61,-2.3,99,1.08,0.0,1011.57,360.0
2019-11-26 09:40,50.630445,-96.9807616666667,3.1,4.2,292,983.72,-2.4,99,1.07,0.0,1011.69,360.0
2019-11-26 09:50,50.6304483333333,-96.980765,3.2,4.5,317,983.75,-2.4,99,1.07,0.0,1011.72,360.0
2019-11-26 10:00,50.630445,-96.9807666666667,2.9,4.3,324,983.81,-2.4,99,1.07,0.0,1011.78,90.0
2019-11-26 10:10,50.63045,-96.9807733333333,3.5,4.7,328,983.80,-2.4,98,1.08,0.0,1011.78,90.0
2019-11-26 10:20,50.6304516666667,-96.980775,3.5,4.9,328,983.86,-2.4,99,1.08,0.0,1011.84,90.0
2019-11-26 10:30,50.6304533333333,-96.9807733333333,3.4,4.5,331,983.93,-2.5,99,1.07,0.0,1011.93,90.0
2019-11-26 10:40,50.6304516666667,-96.9807716666667,2.3,3.3,334,984.04,-2.5,99,1.07,0.0,1012.04,90.0
2019-11-26 10:50,50.6304533333333,-96.9807716666667,1.9,2.6,347,984.13,-2.5,99,1.08,0.0,1012.13,90.0
2019-11-26 11:00,50.6304366666667,-96.9807716666667,2.6,3.4,347,984.19,-2.5,99,1.08,0.0,1012.20,228.3
2019-11-26 11:10,50.630445,-96.9807716666667,3.4,4.1,352,984.28,-2.6,99,1.07,0.0,1012.29,228.3
2019-11-26 11:20,50.630445,-96.9807716666667,4.5,5.5,8,984.25,-2.6,99,1.07,0.0,1012.26,228.3
2019-11-26 11:30,50.6304483333333,-96.980775,4.1,5.3,0,984.37,-2.5,99,1.06,0.0,1012.39,228.3
2019-11-26 11:40,50.6304466666667,-96.9807716666667,2.5,3.8,326,984.65,-2.6,99,1.06,0.0,1012.68,228.3
2019-11-26 11:50,50.6304616666667,-96.9807783333333,3.0,3.8,332,984.81,-2.5,99,1.05,0.0,1012.84,228.3
2019-11-26 12:00,50.63045,-96.9807583333333,2.7,3.5,350,984.89,-2.6,99,1.05,0.0,1012.93,0.0
2019-11-26 12:10,50.6304466666667,-96.98076,3.1,4.0,354,984.96,-2.5,99,1.05,0.0,1013.00,0.0
2019-11-26 12:20,50.630445,-96.9807633333333,2.6,3.9,330,985.09,-2.5,99,1.04,0.0,1013.13,0.0
2019-11-26 12:30,50.630435,-96.98078,2.3,2.9,307,985.27,-2.6,99,1.04,0.0,1013.33,0.0
2019-11-26 12:40,50.630425,-96.98078,2.6,3.8,337,985.33,-2.5,99,1.04,0.0,1013.38,0.0
2019-11-26 12:50,50.63044,-96.9807733333333,2.7,4.2,336,985.35,-2.5,99,1.04,0.0,1013.40,0.0
2019-11-26 13:00,50.630445,-96.980765,5.3,6.9,45,985.37,-2.1,96,1.05,0.0,1013.41,0.0
2019-11-26 13:10,50.630445,-96.98076,6.1,7.4,54,985.50,-2.0,93,1.05,0.0,1013.54,0.0
2019-11-26 13:20,50.630445,-96.98076,5.6,6.8,63,985.75,-1.9,93,1.05,0.0,1013.79,0.0
2019-11-26 13:30,50.6304516666667,-96.9807616666667,6.1,7.0,67,985.88,-1.9,91,1.05,0.0,1013.92,0.0
2019-11-26 13:40,50.63045,-96.9807666666667,6.2,7.2,64,985.95,-1.9,90,1.04,0.0,1013.99,0.0
2019-11-26 13:50,50.63045,-96.98077,6.0,7.4,63,986.04,-1.9,91,1.04,0.0,1014.08,0.0
2019-11-26 14:00,50.6304516666667,-96.9807716666667,7.3,8.4,61,986.06,-2.0,89,1.05,0.0,1014.11,360.0
2019-11-26 14:10,50.63045,-96.98077,7.1,8.2,64,986.21,-2.0,90,1.04,0.0,1014.26,360.0
2019-11-26 14:20,50.6304433333333,-96.98078,7.2,8.5,69,986.27,-2.0,91,1.03,0.0,1014.33,360.0
2019-11-26 14:30,50.6304466666667,-96.9807783333333,8.3,9.4,64,986.34,-2.1,92,1.03,0.0,1014.40,360.0
2019-11-26 14:40,50.63045,-96.9807716666667,8.4,9.7,66,986.47,-2.2,93,1.02,0.0,1014.54,360.0
2019-11-26 14:50,50.63045,-96.98077,9.6,11.8,71,986.52,-2.1,90,1.02,0.0,1014.56,360.0
2019-11-26 15:00,50.63045,-96.9807666666667,9.8,11.7,71,986.57,-2.2,89,1.02,0.0,1014.61,270.0
2019-11-26 15:10,50.63045,-96.980765,9.6,10.9,71,986.80,-2.2,89,1.02,0.0,1014.85,270.0
2019-11-26 15:20,50.63045,-96.9807666666667,9.2,10.7,69,986.95,-2.3,89,1.02,0.0,1015.01,270.0
2019-11-26 15:30,50.6304483333333,-96.9807666666667,9.3,10.9,67,986.99,-2.3,88,1.02,0.0,1015.05,270.0
2019-11-26 15:40,50.6304433333333,-96.9807833333333,8.4,9.4,68,987.16,-2.3,89,1.02,0.0,1015.22,270.0
2019-11-26 15:50,50.630445,-96.98078,8.1,9.4,65,987.31,-2.4,88,1.00,0.0,1015.39,270.0
2019-11-26 16:00,50.6304316666667,-96.98076,8.0,8.8,68,987.38,-2.4,88,1.00,0.0,1015.46,138.7
2019-11-26 16:10,50.6304383333333,-96.9807733333333,8.0,8.8,67,987.55,-2.4,87,1.00,0.0,1015.63,138.7
2019-11-26 16:20,50.6304366666667,-96.9807666666667,8.2,9.2,59,987.62,-2.4,87,1.01,0.0,1015.71,138.7
2019-11-26 16:30,50.63044,-96.9807683333333,8.6,9.8,59,987.65,-2.5,88,1.00,0.0,1015.75,138.7
2019-11-26 16:40,50.6304383333333,-96.9807683333333,8.5,9.5,62,987.71,-2.4,86,0.99,0.0,1015.80,138.7
2019-11-26 16:50,50.6304416666667,-96.9807683333333,8.0,9.0,58,987.79,-2.5,86,1.00,0.0,1015.90,138.7
2019-11-26 17:00,50.63044,-96.9807716666667,7.6,8.9,55,987.88,-2.5,87,1.00,0.0,1015.99,360.0
2019-11-26 17:10,50.630445,-96.9807733333333,7.5,8.3,55,987.94,-2.5,86,0.98,0.0,1016.05,360.0
2019-11-26 17:20,50.6304466666667,-96.9807666666667,7.2,8.0,54,988.00,-2.5,85,0.97,0.0,1016.12,360.0
2019-11-26 17:30,50.6304466666667,-96.9807616666667,7.0,7.7,48,988.10,-2.5,86,0.98,0.0,1016.22,360.0
2019-11-26 17:40,50.6304466666667,-96.980765,7.4,8.5,47,988.07,-2.5,86,0.98,0.0,1016.19,360.0
2019-11-26 17:50,50.6304466666667,-96.9807666666667,7.7,8.4,50,988.11,-2.5,84,0.98,0.0,1016.23,360.0
2019-11-26 18:00,50.630445,-96.9807683333333,7.8,8.7,51,988.20,-2.5,84,0.97,0.0,1016.33,360.0
2019-11-26 18:10,50.6304366666667,-96.9807716666667,7.4,8.7,48,988.30,-2.5,84,0.97,0.0,1016.43,360.0
2019-11-26 18:20,50.63044,-96.9807666666667,7.4,8.4,46,988.37,-2.6,84,0.98,0.0,1016.51,360.0
2019-11-26 18:30,50.63044,-96.9807633333333,7.0,8.1,48,988.46,-2.6,84,0.98,0.0,1016.60,360.0
2019-11-26 18:40,50.63044,-96.9807616666667,7.2,8.2,46,988.44,-2.6,84,0.98,0.0,1016.58,360.0
2019-11-26 18:50,50.63044,-96.9807633333333,7.0,8.2,44,988.53,-2.6,85,0.99,0.0,1016.68,360.0
2019-11-26 19:00,50.6304533333333,-96.9807766666667,7.4,8.2,47,988.59,-2.6,84,1.00,0.0,1016.74,327.9
2019-11-26 19:10,50.6304533333333,-96.9807766666667,7.8,9.0,47,988.60,-2.7,84,1.00,0.0,1016.75,327.9
2019-11-26 19:20,50.630455,-96.9807716666667,7.7,8.9,41,988.62,-2.6,84,1.00,0.0,1016.77,327.9
2019-11-26 19:30,50.6304283333333,-96.98078,6.8,8.0,39,988.84,-2.6,83,1.00,0.0,1017.00,327.9
2019-11-26 19:40,50.6304316666667,-96.98078,6.9,8.0,46,988.93,-2.5,83,0.99,0.0,1017.08,327.9
2019-11-26 19:50,50.6304383333333,-96.980775,7.5,8.7,47,988.91,-2.5,84,0.98,0.0,1017.07,327.9
2019-11-26 20:00,50.630435,-96.9807766666667,7.3,8.3,35,988.94,-2.6,84,0.98,0.0,1017.10,360.0
2019-11-26 20:10,50.6304266666667,-96.9807616666667,6.3,7.3,27,989.11,-2.7,83,0.98,0.0,1017.28,360.0
2019-11-26 20:20,50.63043,-96.980765,6.9,8.1,26,989.18,-2.7,84,0.99,0.0,1017.36,360.0
2019-11-26 20:30,50.63043,-96.9807666666667,7.1,8.0,25,989.20,-2.7,85,0.99,0.0,1017.37,360.0
2019-11-26 20:40,50.63043,-96.98077,7.1,8.2,20,989.26,-2.8,85,0.99,0.0,1017.45,360.0
2019-11-26 20:50,50.6304333333333,-96.9807683333333,6.8,8.5,20,989.43,-2.8,85,0.97,0.0,1017.62,360.0
2019-11-26 21:00,50.630435,-96.98077,7.4,8.5,17,989.53,-2.8,84,0.97,0.0,1017.72,142.0
2019-11-26 21:10,50.6304333333333,-96.98077,7.3,8.8,11,989.62,-2.8,85,0.97,0.0,1017.82,142.0
2019-11-26 21:20,50.6304316666667,-96.9807716666667,7.8,8.9,19,989.71,-2.9,83,0.98,0.0,1017.91,142.0
2019-11-26 21:30,50.6304383333333,-96.9807666666667,8.5,9.7,13,989.72,-2.9,82,0.99,0.0,1017.91,142.0
2019-11-26 21:40,50.6304416666667,-96.9807716666667,8.8,10.5,14,989.75,-2.9,85,1.00,0.0,1017.95,142.0
2019-11-26 21:50,50.63044,-96.9807666666667,9.3,11.4,14,989.76,-2.9,86,1.00,0.0,1017.96,142.0
2019-11-26 22:00,50.63044,-96.9807666666667,10.3,12.0,13,989.74,-2.9,85,1.02,0.0,1017.94,138.7
2019-11-26 22:10,50.6304416666667,-96.9807683333333,10.0,11.5,17,989.79,-2.9,86,1.00,0.0,1018.00,138.7
2019-11-26 22:20,50.6304433333333,-96.9807683333333,9.9,11.4,15,989.95,-2.9,85,1.00,0.0,1018.17,138.7
2019-11-26 22:30,50.6304433333333,-96.9807683333333,9.9,11.2,19,989.97,-2.9,85,1.00,0.0,1018.19,138.7
2019-11-26 22:40,50.6304433333333,-96.98077,9.8,11.1,18,990.00,-2.9,84,1.01,0.0,1018.22,138.7
2019-11-26 22:50,50.6304433333333,-96.9807716666667,10.1,11.2,15,990.11,-2.9,84,0.99,0.0,1018.33,138.7
2019-11-26 23:00,50.6304433333333,-96.9807716666667,10.2,11.3,13,990.21,-2.9,85,0.99,0.0,1018.44,38.0
2019-11-26 23:10,50.6304433333333,-96.9807716666667,10.4,12.0,11,990.31,-2.9,85,0.99,0.0,1018.54,38.0
2019-11-26 23:20,50.6304433333333,-96.9807716666667,10.4,11.9,14,990.33,-2.9,85,1.01,0.0,1018.56,38.0
2019-11-26 23:30,50.6304433333333,-96.9807733333333,11.0,12.2,16,990.38,-2.9,85,1.02,0.0,1018.61,38.0
2019-11-26 23:40,50.6304433333333,-96.9807716666667,10.9,12.5,21,990.46,-2.9,86,1.01,0.0,1018.70,38.0
